Location: Unspecified
(42.9300°N, 71.1866°W)
Time: 04:15:08
(UTC-05:00)

Envisat - Visible Passes

Search period start: 21 February 2018 00:00
Search period end: 03 March 2018 00:00
Orbit: 764 x 766 km, 98.2° (Epoch: 20 February)

Date Brightness Start Highest point End Pass type
(mag) Time Alt. Az. Time Alt. Az. Time Alt. Az.
21 Feb 2.9 18:54:40 10° SSE 18:59:41 64° ENE 19:04:43 10° N visible
21 Feb 5.7 20:36:08 10° SW 20:39:08 16° W 20:42:09 10° NW visible
22 Feb 3.8 18:18:47 10° SE 18:23:10 30° ENE 18:27:33 10° N visible
22 Feb 4.5 19:57:30 10° SSW 20:02:05 34° W 20:06:41 10° NNW visible
23 Feb 3.1 19:20:10 10° S 19:25:14 75° WSW 19:30:20 10° NNW visible
24 Feb 3.1 18:43:41 10° SE 18:48:35 51° ENE 18:53:30 10° N visible
24 Feb 5.4 20:24:14 10° SW 20:27:53 20° W 20:31:33 10° NW visible
25 Feb 4.0 18:08:04 10° ESE 18:12:07 25° ENE 18:16:11 10° NNE visible
25 Feb 4.1 19:46:05 10° S 19:50:53 42° W 19:55:44 10° NNW visible
26 Feb 2.9 19:09:01 10° SSE 19:14:06 87° ENE 19:19:12 10° NNW visible
26 Feb 6.0 20:52:28 10° WSW 20:53:47 11° W 20:55:06 10° WNW visible
27 Feb 3.4 18:32:47 10° SE 18:37:30 41° ENE 18:42:14 10° N visible
27 Feb 5.1 20:12:31 10° SSW 20:16:39 25° W 20:20:47 10° NW visible
28 Feb 4.3 17:57:28 10° ESE 18:01:06 20° ENE 18:04:45 10° NNE visible
28 Feb 3.7 19:34:45 10° S 19:39:43 54° W 19:44:42 10° NNW visible
01 Mar 2.9 18:57:56 10° SSE 19:02:58 70° ENE 19:08:03 10° N visible
01 Mar 5.8 20:39:50 10° WSW 20:42:30 14° W 20:45:11 10° WNW visible
02 Mar 3.7 18:21:57 10° SE 18:26:26 33° ENE 18:30:57 10° N visible
02 Mar 4.7 20:00:58 10° SSW 20:05:25 31° W 20:09:55 10° NNW visible
